sat.trackr.live / text

‹ back to catalog

STARLINK-37249

NORAD 68625 · 2026-073Z

PAYLOAD ACTIVE UNKNOWN

§ Identity

Operator
Country
US
Launch date
2026-04-07
Launch site
AFWTR
Launch vehicle
Mass (kg)
RCS (m²)

Purposes: comms

External: N2YO · Heavens-Above · Gunter

§ Orbital elements

Epoch: 2026-05-25T04:00:03.998880Z

Period
92.52 min
Inclination
97.2850°
Eccentricity
0.0002037
Mean motion
15.56396418 rev/d
Perigee alt
396.7 km
Apogee alt
399.5 km
Semi-major
6,776.2 km
B*
-3.4051e-2
RAAN
344.7230°
Arg perigee
80.8462°
Mean anomaly
24.4823°
Rev number
590

§ Raw data

STARLINK-372491 68625U 26073Z   26145.16671295 -.02133477  00000+0 -34051-1 0  99922 68625  97.2850 344.7230 0002037  80.8462  24.4823 15.56396418  5908

JSON: /api/v1/satellites/68625 · /tle

For live sub-satellite position, see the globe view (requires WebGL).

§ Visibility from observer

Set your observer location to see the next 7 days of passes ≥ 10°. The values pass through the URL so the page stays shareable.

No JS? Fill the form by hand. The geolocation button needs JavaScript.